Regional Weather Roundup
Issued by NWS Upton, NY

Current Version | Previous Version | Graphics & Text | Print | Product List | Glossary Off
Versions: 1 2 3 4 5 6 7 8 9 10 11 12 13 14 15 16 17 18 19 20 21 22 23 24 25 26 27 28 29 30 31 32 33 34 35 36 37 38 39 40 41 42 43 44 45 46 47 48 49 50

000
ASUS41 KOKX 251605
RWROKX

REGIONAL WEATHER ROUNDUP
NATIONAL WEATHER SERVICE NEW YORK NY
1100 AM EST TUE NOV 25 2014

NOTE: "FAIR" INDICATES FEW OR NO CLOUDS BELOW 12,000 FEET WITH NO
SIGNIFICANT WEATHER AND/OR OBSTRUCTIONS TO VISIBILITY.

NYZ071-072-176-178-NJZ106-104-251700-
NEW YORK CITY METRO AREA


CITY           SKY/WX    TMP DP  RH WIND       PRES   REMARKS
CENTRAL PARK   CLOUDY    55  26  32 W10       30.03R
LAGUARDIA APRT CLOUDY    55  27  34 W12G22    30.00R
KENNEDY INTL   CLOUDY    57  27  31 W18G25    30.00R
NEWARK/LIBERTY CLOUDY    55  26  32 W15       30.01R
BRNX BOT. GARD   N/A    N/A N/A N/A W2        30.02R
TETERBORO      CLOUDY    54  28  36 W9        29.99S
$$

NYZ177-179-078>081-251700-
LONG ISLAND NEW YORK

CITY           SKY/WX    TMP DP  RH WIND       PRES   REMARKS
FARMINGDALE    NOT AVBL
ISLIP          CLOUDY    58  34  40 W16       29.97R
SHIRLEY        CLOUDY    59  38  45 W10       29.98R
WESTHAMPTON    CLOUDY    59  39  47 W9        29.98R
MONTAUK POINT    N/A     58  46  64 W8        29.97R
$$

NYZ052-065-067-251700-
HUDSON VALLEY

CITY           SKY/WX    TMP DP  RH WIND       PRES   REMARKS
WHITE PLAINS   CLOUDY    54  27  35 W10G21    29.97R
NEWBURGH       CLOUDY    50  30  46 W17G23    29.98R
MONTGOMERY     CLOUDY    51  29  42 SW12      29.97S
POUGHKEEPSIE   CLOUDY    54  28  36 SW8       29.97R
ALBANY         CLOUDY    51  28  41 W8        29.94S
$$

NJZ001-105-106-008-010-013-015-019>022-104-251700-
NEW JERSEY

CITY           SKY/WX    TMP DP  RH WIND       PRES   REMARKS
NEWARK/LIBERTY CLOUDY    55  26  32 W15       30.01R
TETERBORO      CLOUDY    54  28  36 W9        29.99S
CALDWELL       CLOUDY    52  25  35 NW15G23   30.01R
MORRISTOWN     CLOUDY    52  27  37 NW15G25   30.01R
SOMERVILLE     CLOUDY    53  27  36 MISG      30.01S
SUSSEX         CLOUDY    51  28  41 SW5       30.00S
ANDOVER          N/A     49  27  42 VRB6      30.00F
TRENTON        CLOUDY    53  29  39 W10       30.02S
MILLVILLE      CLOUDY    55  35  47 NW10      30.03F
ATLANTIC CITY  CLOUDY    56  38  50 NW13      30.02R
WRIGHTSTOWN    CLOUDY    54  32  43 NW9       30.00F
TOMS RIVER     CLOUDY    54  34  47 NW7       30.03R
BELMAR         CLOUDY    54  30  40 W14G21    30.01S
$$

PAZ047>061-062-071-251700-
EASTERN PENNSYLVANIA

CITY           SKY/WX    TMP DP  RH WIND       PRES   REMARKS
PHILADELPHIA   CLOUDY    55  30  38 W16       30.05S
ALLENTOWN      CLOUDY    51  29  42 W13       30.03R
SCRANTON       CLOUDY    47  28  47 SW12      29.99S
$$

CTZ002-004>006-009-010-012-RIZ004-006-007-MAZ004-011-015-251700-
SOUTHERN NEW ENGLAND
 IN CT

CITY           SKY/WX    TMP DP  RH WIND       PRES   REMARKS
BRADLEY INTL   CLOUDY    58  28  32 W16G23    29.90S
HARTFORD       CLOUDY    58  29  33 SW12G22   29.93R
DANBURY        CLOUDY    53  24  32 W13G18    29.97S
WTRBRY/OXFORD  NOT AVBL
BRIDGEPORT     CLOUDY    58  34  40 NW12      29.96R
MERIDEN        CLOUDY    58  28  32 W5        29.95R
NEW HAVEN      CLOUDY    59  37  44 W6        29.96R
CHESTER        FAIR      57  36  44 W3        29.95R
GROTON         CLOUDY    58  44  60 W10       29.94R
WILLIMANTIC    CLOUDY    60  30  32 W6        29.92S

 IN RI

CITY           SKY/WX    TMP DP  RH WIND       PRES   REMARKS
PROVIDENCE     CLOUDY    62  41  46 W10       29.92R
BLOCK ISLAND   CLOUDY    57  48  72 W12G18    29.95R
WESTERLY       CLOUDY    57  49  74 SW9       29.94R

 IN MA

CITY           SKY/WX    TMP DP  RH WIND       PRES   REMARKS
BOSTON         CLOUDY    62  41  46 SW10      29.86S
WORCESTER      CLOUDY    56  34  43 W18G25    29.87S
WESTFIELD      CLOUDY    57  32  38 SW8       29.90R
PROVINCETOWN   MOSUNNY   55  54  94 S12       29.89F
NANTUCKET      PTSUNNY   57  54  89 SW10      29.93S FOG
$$

ANZ330-335-338-340-345-350-353-355-251700-
COASTAL MARINE OBSERVATIONS


STATION/POSITION TIME  SKY/WX   TEMP    WIND        PRES    VSBY  WAVE
                                AIR SEA DIR/SP/G                  HT/PER
                 (UTC)          (F)     (DEG/KT/KT) (MB)    (MI)  (FT/S)
NY HARB ENTRANCE 1600            54 55  280/ 19/ 25 1016.3          6/10
4S FIRE IS       1600               53                N/A           7/10
20S FIRE ISLAND  1600            56 55  300/ 17/ 23 1015.1          8/10
23SW MTP         1600                                 N/A           8/10
HUDSON CANYON    1600            59 60  260/ 12/ 14 1015.3          7/ 9
EXECUTION ROCKS  1600            54 48  270/ 10/ 14   N/A
WESTERN LI SOUND 1600            55     280/ 16/ 21   N/A           1
CENTRAL LI SOUND 1500            53 50  270/ 10/ 12   N/A           1
EASTERN LI SOUND 1500            54 53  260/ 14/ 17   N/A
ROBBINS REEF     1600            54     290/ 20/ 23 1014.9
$$


>>>>>>>>>>>>>>>>>>>>>>>>>>>> KEY <<<<<<<<<<<<<<<<<<<<<<<<<<<
>                                                          <
>     SKY/WX - SKY CONDITION/PRESENT WEATHER               <
>     TMP    - TEMPERATURE IN FAHRENHEIT                   <
>     DP     - DEWPOINT IN FAHRENHEIT                      <
>     RH     - RELATIVE HUMIDITY IN PERCENT                <
>     WIND   - DIRECTION AND SPEED IN MPH                  <
>     PRES   - MEAN SEA LEVEL PRESSURE IN INCHES OF HG     <
>     WCI    - WIND CHILL INDEX                            <
>     VSB    - VISIBILITY IN MILES                         <
>     HX     - HEAT INDEX                                  <
>     TC     - TEMPERATURE IN CELSIUS                      <
>     VRB    - VARIABLE WIND DIRECTION                     <
>                                                          <
>>>>>>>>>>>>>>>>>>>>>>>>>>>> KEY <<<<<<<<<<<<<<<<<<<<<<<<<<<





USA.gov is the U.S. government's official web portal to all federal, state and local government web resources and services.